Weather WX

World > North America > United States > Ohio

Blue Ash, Ohio Regional Weather

Lat: 39.25N, Lon: 84.38W
Wx Zone: OHZ077
Feedback

Blue Ash, OH Regional Weather

Expires:201906251000;;046283
ASUS41 KCLE 250912
RWRCLE
OHIO REGIONAL WEATHER ROUNDUP
NATIONAL WEATHER SERVICE WILMINGTON, OH
500 AM EDT TUE JUN 25 2019

NOTE: "FAIR" INDICATES FEW OR NO CLOUDS BELOW 12,000 FEET WITH NO
SIGNIFICANT WEATHER AND/OR OBSTRUCTIONS TO VISIBILITY.


OHZ042-051>053-060>062-070>072-077>081-251000-
  SOUTHWEST OHIO
  
CITY           SKY/WX    TMP DP  RH WIND       PRES   REMARKS
CINC-COVINGTON FAIR      65  62  90 W6        29.90R                  
CINC-LUNKEN    FAIR      66  64  93 S5        29.90R                  
HAMILTON       FAIR      65  64  97 W3        29.90R                  
DAYTON         FAIR      66  62  87 W9        29.89R                  
WRIGHT-PAT AFB CLEAR     64  63  97 SW6       29.87R                  
DAYTON GENERAL FAIR      68  64  87 SW6       29.88R                  
WILMINGTON     FAIR      65  63  93 W6        29.88R                  
$$


SKY/WX - Weather  TMP - Temperature  DP - Dew Point  RH - Relative Humidity
WIND - Wind Direction/Speed PRES - Barometric Pressure VSB - Visibility
WCI - Wind Chill Index E13G22 Wind - East Wind 13 mph/Gusts of 22 mph